This demonstration page uses our WeatherBlox Daily Observations layout. Learn more.

Left ArrowRight Arrow

Hourly Observations for March 24, 2021

Temp ( °F °C ) Dew Point ( °F °C ) Humidity (%) Winds ( mph kmh ) Pressure ( in mb ) Visibility ( mi km ) Precip ( " mm )
12:53 am 00:53 Clear 22 -5.6 17 -8.3 82 82 ENE 7 11 30.11 1020 10 16.0934 0 0
1:53 am 01:53 Clear 21 -6.1 16 -8.9 81 81 E 3 6 30.06 1018 10 16.0934 0 0
2:53 am 02:53 Clear 19 -7.2 15 -9.4 84 84 ESE 5 7 30.03 1017 10 16.0934 0 0
3:53 am 03:53 Clear 21 -6.1 16 -8.9 81 81 Calm 29.98 1015 10 16.0934 0 0
4:53 am 04:53 Clear 20 -6.7 15 -9.4 81 81 Calm 29.94 1014 10 16.0934 0 0
5:53 am 05:53 Clear 26 -3.3 18 -7.8 71 71 W 3 6 29.89 1012 10 16.0934 0 0
6:53 am 06:53 Clear 30 -1.1 21 -6.1 69 69 SW 15 24 29.86 1011 10 16.0934 0 0
7:53 am 07:53 Sunny 33 0.6 21 -6.1 61 61 SSW 18 30 29.84 1010 10 16.0934 0 0
8:53 am 08:53 Sunny 37 2.8 21 -6.1 52 52 SW 26 43 29.81 1010 10 16.0934 0 0
9:53 am 09:53 Sunny 41 5 22 -5.6 47 47 SW 26 43 29.79 1009 10 16.0934 0 0
10:53 am 10:53 Mostly Sunny 42 5.6 23 -5 47 47 SW 24 39 29.75 1007 10 16.0934 0 0
11:53 am 11:53 Sunny 48 8.9 22 -5.6 36 36 SW 21 33 29.7 1006 10 16.0934 0 0
12:53 pm 12:53 Mostly Cloudy 50 10 20 -6.7 30 30 WSW 22 35 29.67 1005 10 16.0934 0 0
1:53 pm 13:53 Mostly Cloudy 51 10.6 20 -6.7 29 29 WSW 21 33 29.64 1004 10 16.0934 0 0
2:53 pm 14:53 Cloudy 50 10 20 -6.7 30 30 WSW 20 31 29.61 1003 10 16.0934 0 0
3:53 pm 15:53 Partly Cloudy 51 10.6 20 -6.7 29 29 SW 20 31 29.58 1002 10 16.0934 0 0
4:53 pm 16:53 Mostly Cloudy 51 10.6 19 -7.2 28 28 WSW 16 26 29.56 1001 10 16.0934 0 0
5:53 pm 17:53 Cloudy 51 10.6 20 -6.7 29 29 WSW 20 31 29.53 1000 10 16.0934 0 0
6:53 pm 18:53 Cloudy 49 9.4 21 -6.1 33 33 WSW 15 24 29.52 1000 10 16.0934 0 0
7:53 pm 19:53 Cloudy 47 8.3 21 -6.1 36 36 WSW 16 26 29.51 999 10 16.0934 0 0
8:53 pm 20:53 Cloudy 46 7.8 23 -5 40 40 WSW 14 22 29.51 999 10 16.0934 0 0
9:53 pm 21:53 Cloudy 43 6.1 21 -6.1 42 42 W 22 35 29.52 1000 10 16.0934 0 0
10:53 pm 22:53 Cloudy 42 5.6 22 -5.6 45 45 W 15 24 29.52 1000 10 16.0934 0 0
11:53 pm 23:53 Cloudy 40 4.4 23 -5 51 51 W 10 17 29.52 1000 10 16.0934 0 0

Powered by AerisWeather